TimeCDT,TemperatureF,Dew PointF,Humidity,Sea Level PressureIn,VisibilityMPH,Wind Direction,Wind SpeedMPH,Gust SpeedMPH,PrecipitationIn,Events,Conditions,WindDirDegrees,DateUTC
12:15 AM,54.9,47.8,77,29.96,10.0,SE,5.8,-,N/A,,Clear,130,2013-09-23 05:15:00
12:35 AM,54.3,48.0,79,29.96,10.0,SE,5.8,-,N/A,,Clear,130,2013-09-23 05:35:00
12:55 AM,53.8,47.7,80,29.96,10.0,SE,6.9,-,N/A,,Clear,130,2013-09-23 05:55:00
1:15 AM,54.0,47.8,80,29.96,10.0,SE,6.9,-,N/A,,Clear,140,2013-09-23 06:15:00
1:35 AM,53.8,47.8,80,29.96,10.0,SE,6.9,-,N/A,,Clear,130,2013-09-23 06:35:00
1:55 AM,53.1,47.7,82,29.96,10.0,SE,4.6,-,N/A,,Clear,130,2013-09-23 06:55:00
2:15 AM,52.7,47.5,82,29.97,10.0,SE,4.6,-,N/A,,Clear,130,2013-09-23 07:15:00
2:35 AM,51.8,47.5,85,29.96,10.0,SE,4.6,-,N/A,,Clear,130,2013-09-23 07:35:00
2:55 AM,52.2,47.8,85,29.96,10.0,SE,6.9,-,N/A,,Clear,130,2013-09-23 07:55:00
3:15 AM,52.0,47.5,85,29.96,10.0,SE,4.6,-,N/A,,Clear,130,2013-09-23 08:15:00
3:35 AM,50.9,46.8,86,29.95,10.0,ESE,3.5,-,N/A,,Clear,120,2013-09-23 08:35:00
3:55 AM,50.5,47.5,89,29.96,10.0,SE,3.5,-,N/A,,Clear,130,2013-09-23 08:55:00
4:15 AM,50.0,47.3,90,29.95,10.0,ESE,4.6,-,N/A,,Clear,120,2013-09-23 09:15:00
4:35 AM,49.3,46.9,92,29.96,10.0,ESE,3.5,-,N/A,,Clear,120,2013-09-23 09:35:00
4:55 AM,49.1,46.9,92,29.96,10.0,Calm,Calm,-,N/A,,Clear,0,2013-09-23 09:55:00
5:15 AM,48.6,46.6,93,29.97,10.0,ESE,3.5,-,N/A,,Clear,120,2013-09-23 10:15:00
5:35 AM,48.2,46.4,93,29.97,10.0,Calm,Calm,-,N/A,,Clear,0,2013-09-23 10:35:00
5:55 AM,48.2,46.4,93,29.98,10.0,ESE,3.5,-,N/A,,Clear,120,2013-09-23 10:55:00
6:15 AM,47.8,46.0,93,29.98,10.0,ESE,4.6,-,N/A,,Clear,120,2013-09-23 11:15:00
6:35 AM,47.7,45.9,93,29.98,10.0,ESE,4.6,-,N/A,,Clear,120,2013-09-23 11:35:00
6:55 AM,47.3,45.5,93,29.98,10.0,ESE,4.6,-,N/A,,Clear,120,2013-09-23 11:55:00
7:15 AM,46.9,45.1,93,29.98,10.0,ESE,4.6,-,N/A,,Clear,110,2013-09-23 12:15:00
7:35 AM,47.3,45.5,93,29.98,10.0,ESE,6.9,-,N/A,,Clear,120,2013-09-23 12:35:00
7:55 AM,48.7,46.6,92,29.98,10.0,ESE,8.1,-,N/A,,Clear,120,2013-09-23 12:55:00
8:15 AM,50.7,47.5,89,29.98,10.0,ESE,5.8,-,N/A,,Clear,120,2013-09-23 13:15:00
8:35 AM,53.4,48.0,82,29.99,10.0,SE,8.1,-,N/A,,Clear,130,2013-09-23 13:35:00
8:55 AM,54.9,48.4,79,29.99,10.0,SE,6.9,-,N/A,,Clear,130,2013-09-23 13:55:00
9:15 AM,57.0,49.1,75,30.00,10.0,ESE,8.1,-,N/A,,Clear,120,2013-09-23 14:15:00
9:35 AM,59.2,49.5,70,30.00,10.0,SE,8.1,-,N/A,,Clear,130,2013-09-23 14:35:00
9:55 AM,61.5,50.4,67,30.00,10.0,SSE,10.4,-,N/A,,Clear,150,2013-09-23 14:55:00
10:15 AM,63.7,50.4,62,30.01,10.0,SE,8.1,-,N/A,,Clear,140,2013-09-23 15:15:00
10:35 AM,65.5,50.5,58,30.01,10.0,SSE,9.2,-,N/A,,Clear,150,2013-09-23 15:35:00
10:55 AM,67.3,50.7,55,30.01,10.0,SSE,11.5,-,N/A,,Clear,160,2013-09-23 15:55:00
11:15 AM,69.6,51.3,52,30.00,10.0,SSE,6.9,-,N/A,,Clear,160,2013-09-23 16:15:00
11:35 AM,70.5,50.5,49,30.00,10.0,SSE,9.2,16.1,N/A,,Clear,150,2013-09-23 16:35:00
11:55 AM,71.2,50.7,48,29.99,10.0,South,13.8,-,N/A,,Clear,170,2013-09-23 16:55:00
12:15 PM,72.5,50.5,46,29.98,10.0,South,13.8,-,N/A,,Clear,190,2013-09-23 17:15:00
12:35 PM,73.0,49.8,44,29.96,10.0,SSE,13.8,-,N/A,,Clear,160,2013-09-23 17:35:00
1:15 PM,73.2,49.6,43,29.95,10.0,SSE,11.5,18.4,N/A,,Clear,150,2013-09-23 18:15:00
1:35 PM,73.4,48.9,42,29.95,10.0,SE,11.5,-,N/A,,Clear,130,2013-09-23 18:35:00
1:55 PM,75.0,49.8,41,29.94,10.0,SSE,9.2,18.4,N/A,,Clear,160,2013-09-23 18:55:00
2:15 PM,75.2,49.1,40,29.93,10.0,SE,11.5,-,N/A,,Clear,140,2013-09-23 19:15:00
2:35 PM,74.8,48.6,39,29.92,10.0,SE,11.5,-,N/A,,Clear,140,2013-09-23 19:35:00
2:55 PM,75.0,48.7,39,29.92,10.0,SSE,9.2,17.3,N/A,,Clear,160,2013-09-23 19:55:00
3:15 PM,75.0,47.7,38,29.91,10.0,SSE,12.7,24.2,N/A,,Clear,160,2013-09-23 20:15:00
3:35 PM,75.6,47.5,37,29.91,10.0,SSE,12.7,23.0,N/A,,Clear,160,2013-09-23 20:35:00
3:55 PM,75.4,47.5,37,29.91,10.0,SE,15.0,21.9,N/A,,Clear,130,2013-09-23 20:55:00
4:15 PM,75.6,47.7,37,29.91,10.0,SSE,13.8,18.4,N/A,,Clear,150,2013-09-23 21:15:00
4:35 PM,75.4,47.3,37,29.90,10.0,SSE,11.5,17.3,N/A,,Clear,150,2013-09-23 21:35:00
4:55 PM,75.0,47.1,37,29.90,10.0,SE,11.5,20.7,N/A,,Clear,140,2013-09-23 21:55:00
5:15 PM,74.3,47.1,38,29.90,10.0,SE,12.7,18.4,N/A,,Clear,140,2013-09-23 22:15:00
5:35 PM,73.6,46.4,38,29.89,10.0,SE,13.8,18.4,N/A,,Clear,130,2013-09-23 22:35:00
5:55 PM,72.7,46.6,39,29.89,10.0,SE,10.4,19.6,N/A,,Clear,140,2013-09-23 22:55:00
6:15 PM,71.6,46.6,41,29.89,10.0,SE,13.8,20.7,N/A,,Clear,130,2013-09-23 23:15:00
6:35 PM,70.3,46.0,42,29.88,10.0,SE,12.7,-,N/A,,Clear,130,2013-09-23 23:35:00
6:55 PM,68.5,47.3,47,29.88,10.0,SE,10.4,16.1,N/A,,Clear,130,2013-09-23 23:55:00
7:15 PM,67.1,47.8,50,29.88,10.0,SE,10.4,-,N/A,,Clear,140,2013-09-24 00:15:00
7:35 PM,64.8,48.2,55,29.88,10.0,SE,5.8,-,N/A,,Clear,130,2013-09-24 00:35:00
7:55 PM,63.9,48.7,58,29.89,10.0,SE,8.1,-,N/A,,Clear,130,2013-09-24 00:55:00
8:15 PM,63.3,48.7,59,29.89,10.0,ESE,9.2,-,N/A,,Clear,120,2013-09-24 01:15:00
8:35 PM,62.2,48.7,61,29.90,10.0,SE,8.1,-,N/A,,Clear,130,2013-09-24 01:35:00
8:55 PM,61.7,48.7,62,29.91,10.0,ESE,8.1,-,N/A,,Clear,120,2013-09-24 01:55:00
9:15 PM,60.8,48.9,65,29.91,10.0,SE,8.1,-,N/A,,Clear,130,2013-09-24 02:15:00
9:35 PM,59.9,49.1,67,29.91,10.0,ESE,9.2,-,N/A,,Clear,120,2013-09-24 02:35:00
9:55 PM,59.4,49.3,69,29.91,10.0,ESE,8.1,-,N/A,,Clear,120,2013-09-24 02:55:00
10:15 PM,58.6,49.3,71,29.91,10.0,ESE,6.9,-,N/A,,Clear,120,2013-09-24 03:15:00
10:35 PM,58.1,49.5,73,29.92,10.0,ESE,6.9,-,N/A,,Clear,120,2013-09-24 03:35:00
10:55 PM,57.4,49.3,74,29.92,10.0,SE,6.9,-,N/A,,Clear,130,2013-09-24 03:55:00
11:15 PM,56.7,49.3,76,29.93,10.0,SE,5.8,-,N/A,,Clear,130,2013-09-24 04:15:00
11:35 PM,55.8,49.1,78,29.93,10.0,ESE,4.6,-,N/A,,Clear,120,2013-09-24 04:35:00
11:55 PM,54.9,49.1,81,29.93,10.0,ESE,5.8,-,N/A,,Clear,120,2013-09-24 04:55:00